Flag for Russia Weather past 2 weeks in Yuzhno-Sakhalinsk, Russia

Now
52 °F

Passing clouds.


Feels Like: 51 °F
Forecast: 44 / 60 °F
Wind: 3 mph from North

Location: Yuzhno Airport-Sakhalinsk

Current Time: Sep 19, 2014 at 9:31:44 PM

Latest Report: Sep 19, 2014 at 9:00 PM


Visibility: N/A

Pressure: 29.65 "Hg

Humidity: 94%

Dew point: 50 °F

Location of Yuzhno-SakhalinskLocation

Historic Weather in Yuzhno-Sakhalinsk — Graph

°F

Yuzhno-Sakhalinsk temperature yesterday

Maximum temperature yesterday: 63 °F (at 12:30 PM)
Minimum temperature yesterday: 39 °F (at 4:00 AM)
Average temperature yesterday: 51 °F

Past Weeks' High & Low Weather Summary

 TemperatureHumidityPressure
High73 °F (Sep 5, 4:00 PM)100% (Sep 4, 8:00 PM)30.04 "Hg (Sep 4, 8:00 PM)
Low32 °F (Sep 14, 6:00 AM)49% (Sep 14, 2:00 PM)29.56 "Hg (Sep 19, 6:30 AM)
Average57 °F86%29.84 "Hg
* Reported Sep 4 8:00 PM — Sep 19 8:30 PM, Yuzhno-Sakhalinsk, Weather by CustomWeather, © 2014

Note: Actual official high and low records may vary slightly from our data, if they occured in-between our weather recording intervals... More about our weather records

Advertising

Yuzhno-Sakhalinsk weather history for previous 24 hours

 ConditionsComfort  
Time TempWeatherWind HumidityBarometerVisibility
8:30 PM
Sep 19
52 °FPartly sunny.1 mph94%29.62 "HgN/A
8:00 PM52 °FPartly sunny.3 mph88%29.62 "HgN/A
7:30 PM54 °FPartly sunny.6 mph88%29.62 "HgN/A
7:00 PM59 °FPartly sunny.6 mph72%29.62 "HgN/A
6:30 PM59 °FPartly sunny.6 mph72%29.62 "HgN/A
6:00 PM59 °FPartly sunny.3 mph72%29.59 "HgN/A
5:30 PM57 °FScattered clouds.1 mph77%29.59 "HgN/A
5:00 PM59 °FScattered clouds.8 mph72%29.62 "HgN/A
4:30 PM61 °FScattered clouds.8 mph68%29.59 "HgN/A
4:00 PM61 °FScattered clouds.8 mph68%29.62 "HgN/A
3:30 PM57 °FScattered clouds.13 mph77%29.62 "HgN/A
3:00 PM55 °FSprinkles. Partly sunny.15 mph88%29.62 "HgN/A
2:30 PM57 °FSprinkles. Partly sunny.15 mph82%29.62 "HgN/A
2:00 PM55 °FRain showers. Partly sunny.17 mph88%29.62 "Hg4 mi
1:30 PM55 °FSprinkles. Partly sunny.17 mph82%29.62 "HgN/A
1:00 PM55 °FSprinkles. Partly sunny.20 mph88%29.62 "HgN/A
12:30 PM57 °FPartly sunny.13 mph77%29.59 "HgN/A
12:00 PM55 °FSprinkles. Partly sunny.15 mph82%29.59 "HgN/A
11:30 AM54 °FSprinkles. Partly sunny.15 mph88%29.59 "Hg5 mi
11:00 AM54 °FSprinkles. Partly sunny.13 mph88%29.59 "HgN/A
10:30 AM54 °FPartly sunny.6 mph88%29.59 "HgN/A
10:00 AM52 °FScattered clouds.8 mph100%29.56 "HgN/A
9:30 AM48 °FPartly sunny.3 mph100%29.56 "HgN/A
9:00 AM46 °FPartly sunny.3 mph100%29.56 "HgN/A
8:30 AM45 °FScattered clouds.1 mph100%29.56 "HgN/A
8:00 AM45 °FPassing clouds.No wind100%29.56 "Hg5 mi
7:30 AM45 °FPassing clouds.No wind100%29.56 "Hg4 mi
7:00 AM45 °FFog.1 mph100%29.56 "Hg2 mi
6:30 AM43 °FSprinkles. Fog.No wind100%29.56 "Hg1 mi
6:00 AM43 °FSprinkles. Fog.No wind100%29.59 "Hg1 mi
5:30 AM41 °FFog.No wind100%29.59 "Hg1 mi
5:00 AM41 °FFog.No wind100%29.59 "Hg1 mi
4:00 AM37 °FFog.1 mph100%29.62 "Hg0 mi
3:00 AM37 °FFog.No wind100%29.65 "Hg1 mi
2:00 AM41 °FPassing clouds.1 mph100%29.65 "Hg4 mi
1:00 AM43 °FFog.3 mph100%29.65 "Hg3 mi
12:00 AM45 °FPassing clouds.3 mph100%29.68 "Hg5 mi
11:00 PM
Sep 18
46 °FPassing clouds.3 mph100%29.68 "Hg4 mi
10:00 PM50 °FPassing clouds.1 mph100%29.68 "Hg4 mi
9:30 PM50 °FPassing clouds.1 mph100%29.68 "HgN/A
9:00 PM50 °FPassing clouds.No wind100%29.68 "HgN/A
Weather by CustomWeather, © 2014

See weather overviewHow to use our weather pages